RH
23 23 23 23 23 23 25 24 22 21 22 20 24 30 34 38 31 29 24 21 20 16 12 11 11 11 11 10 10 10 10 9 15
24 23 24 24 24 23 24 23 27 26 25 24 27 33 35 43 39 32 29 30 25 17 14 13 12 13 12 12 12 12 10 9 9
26 24 24 25 24 23 24 24 26 24 25 28 31 32 35 46 48 42 32 23 16 12 11 11 11 11 11 11 11 11 11 9 8
27 28 28 27 25 23 24 23 24 25 28 35 36 33 35 45 41 36 30 20 13 11 11 10 10 9 9 9 9 10 10 10 10
33 33 30 26 23 23 23 23 21 28 36 44 40 35 38 44 41 33 22 17 14 13 12 11 11 10 9 9 8 8 11 14 13
35 33 28 26 23 24 23 24 27 35 45 49 44 38 39 36 32 24 19 15 13 12 12 12 11 11 11 10 10 10 12 16 16
36 35 31 29 26 25 25 26 30 40 50 48 41 39 37 37 28 20 16 12 12 12 12 12 12 12 12 14 16 17 18 20 21
41 38 35 31 31 28 28 32 40 51 51 51 50 45 39 20 18 14 13 12 12 12 12 12 12 12 16 18 22 23 24 26 25
49 46 39 35 34 32 33 41 50 58 60 54 39 22 19 16 15 14 13 13 13 13 12 12 13 17 20 23 25 27 27 31 33
57 50 43 41 37 39 47 53 59 59 44 28 20 18 18 17 16 16 15 14 13 12 11 14 17 19 21 23 24 29 31 36 41
60 50 48 50 53 61 65 60 55 47 27 20 20 20 19 18 16 15 14 13 13 12 13 15 19 18 17 18 23 25 28 38 43
58 56 57 64 73 72 59 47 38 27 24 23 21 22 22 19 15 14 13 13 13 14 16 16 17 15 15 15 20 25 26 33 47
60 62 73 78 78 70 61 51 39 36 34 32 30 28 24 19 15 13 12 13 14 17 19 16 17 18 17 17 17 26 28 29 38
72 81 89 87 82 76 70 60 49 44 38 36 36 27 21 18 16 14 13 16 18 19 22 20 18 20 24 24 23 20 27 29 33
84 94 94 88 85 82 74 68 55 48 47 45 42 32 26 22 19 17 17 18 18 21 27 26 20 20 24 33 34 32 25 26 31
98 95 96 94 94 94 86 76 71 63 60 54 42 35 29 25 21 19 22 22 22 28 32 30 27 22 23 28 33 39 40 34 26
100 100 100 100 100 97 89 83 75 66 56 46 39 34 28 23 25 24 24 27 30 33 37 38 33 29 25 24 28 32 38 42 44
100 100 100 100 95 90 85 79 69 57 49 42 36 31 28 27 24 23 23 24 25 25 26 34 42 37 31 27 26 29 32 35 41
100 100 99 94 90 84 79 72 60 56 47 39 35 33 32 30 28 24 22 22 21 21 20 21 25 38 42 36 31 29 30 32 35
99 100 99 92 82 75 68 60 57 46 40 36 34 30 29 27 26 24 21 17 17 17 17 17 17 18 23 37 43 38 36 35 35
Wind_Speed
28 29 31 33 33 32 35 37 37 36 37 35 35 35 33 34 33 34 35 36 38 40 41 43 46 49 52 52 53 54 55 57 59
31 33 36 37 37 37 39 41 41 40 40 37 36 34 34 35 35 37 38 41 44 45 46 48 49 51 53 53 52 54 59 58 58
36 37 38 39 40 42 43 45 43 41 39 37 35 35 36 38 40 41 41 42 44 46 48 49 49 49 51 57 59 56 60 65 64
38 40 41 42 44 46 46 46 41 39 39 36 36 37 39 41 42 44 47 48 48 50 52 54 54 54 52 53 53 58 72 63 61
40 43 45 46 47 48 47 45 41 40 38 38 39 40 43 45 46 49 49 52 55 57 56 58 60 63 64 60 56 55 53 50 49
43 46 46 48 49 49 48 45 43 40 39 40 41 43 47 49 50 50 51 54 58 58 59 61 64 67 67 69 64 58 54 48 48
44 47 49 51 51 49 48 45 42 41 42 43 44 47 50 52 52 53 55 57 59 61 64 67 68 70 70 69 67 59 50 42 39
47 50 52 52 51 50 48 46 43 42 43 45 48 49 49 51 54 56 58 61 62 65 69 72 72 71 68 65 62 54 46 40 35
52 53 53 53 52 50 49 47 45 45 44 46 46 48 52 54 56 58 61 63 66 69 71 74 72 66 60 56 53 50 43 39 35
54 54 54 55 54 52 50 48 47 47 46 48 50 53 55 57 59 61 63 65 68 70 68 67 61 52 48 47 48 47 44 39 36
55 55 55 56 53 51 50 49 48 49 50 52 55 58 60 61 62 64 66 68 69 67 66 59 48 41 40 41 44 44 44 41 38
57 56 56 54 52 51 51 52 53 54 56 59 62 64 65 66 66 67 68 69 68 66 62 53 45 43 39 39 40 41 42 42 41
57 58 56 55 53 54 55 56 57 60 62 65 67 69 70 70 71 70 71 71 70 67 62 54 43 39 39 37 37 38 39 40 42
58 58 57 57 57 58 59 60 63 66 67 68 72 73 74 75 76 77 75 72 72 71 65 56 48 40 40 41 40 37 37 38 40
59 60 61 62 62 63 64 65 66 69 73 74 77 78 80 80 81 81 80 77 75 74 66 60 54 48 43 41 41 40 37 37 38
62 64 65 66 67 68 69 71 71 74 77 79 81 83 84 85 84 82 80 80 79 76 71 63 59 56 52 47 43 41 41 39 37
66 66 67 68 70 72 73 75 77 80 82 84 87 88 89 88 88 85 83 82 82 79 77 70 64 60 58 55 51 47 43 43 41
68 69 69 71 73 74 76 80 83 85 88 90 92 94 94 96 94 92 92 89 85 82 76 74 72 69 65 62 59 56 52 48 46
71 72 74 75 77 80 84 87 90 92 94 95 96 95 97 99 100 100 99 95 89 81 79 78 73 75 72 71 67 63 61 58 53
75 76 79 81 83 87 91 94 96 95 96 97 98 101 102 103 103 104 104 95 88 86 88 86 81 77 75 79 77 74 70 68 64
Wind_Direction
312 312 312 311 311 310 310 310 308 304 306 299 297 292 293 296 298 293 293 296 296 297 294 292 290 287 285 282 280 275 271 269 267
310 311 313 313 313 311 311 312 310 307 307 300 301 296 299 298 299 298 296 296 293 291 288 288 286 283 278 277 277 279 276 271 268
310 312 314 314 313 310 312 314 312 309 308 303 303 301 301 299 299 299 297 294 292 289 287 288 286 283 279 271 268 271 277 275 270
312 314 314 313 313 314 315 315 313 311 309 304 303 300 301 301 301 302 300 297 297 296 297 295 294 292 291 277 273 271 267 272 269
311 313 315 315 317 318 317 318 315 311 307 305 301 299 299 301 304 304 302 302 303 303 302 302 301 301 301 296 291 286 284 279 264
312 313 316 317 319 320 319 317 314 310 308 304 302 300 302 305 305 305 305 304 305 306 306 305 305 305 304 303 300 294 289 283 268
311 314 317 320 318 317 317 316 315 311 308 304 303 304 305 307 307 306 306 306 307 307 307 307 307 305 304 302 300 297 293 283 263
311 313 316 318 316 315 316 315 312 310 309 306 304 305 305 305 307 307 307 308 308 309 310 309 306 303 301 298 296 295 291 286 272
311 312 314 315 314 313 312 312 310 308 307 307 307 305 305 306 307 309 310 311 311 312 311 309 305 302 298 294 291 289 288 282 274
309 310 312 311 311 310 310 310 310 310 307 306 305 306 305 306 308 311 312 313 314 314 317 314 307 303 297 294 290 286 283 277 267
308 309 308 308 307 307 307 306 305 304 304 304 303 304 305 306 307 310 311 312 314 315 322 317 309 305 304 300 293 286 281 273 263
306 306 305 305 303 304 303 303 303 303 303 303 302 304 306 307 309 310 311 311 315 320 319 313 307 306 306 305 299 289 283 272 262
305 304 301 302 301 300 300 301 301 302 301 302 304 305 307 308 309 310 311 312 316 318 317 312 302 306 308 308 308 297 288 280 264
302 301 298 298 299 299 299 300 300 300 301 303 304 307 308 309 310 312 312 314 317 316 316 307 299 298 303 306 305 306 298 286 275
299 297 296 297 298 299 300 300 300 300 302 304 306 308 308 310 312 312 312 314 314 312 309 308 298 295 294 299 304 302 301 296 283
297 296 298 298 298 298 299 299 300 301 303 304 306 306 308 309 309 309 309 309 310 310 306 300 297 293 289 290 291 295 297 295 291
296 297 297 297 298 299 300 301 302 304 304 305 307 307 307 308 307 306 307 306 304 304 301 298 293 287 285 284 284 284 285 287 287
295 296 297 298 299 300 301 302 303 304 306 307 307 308 307 306 305 305 304 303 302 299 297 291 289 284 281 277 279 277 277 276 278
295 297 298 300 301 302 303 304 305 306 307 307 307 305 303 303 303 303 303 303 301 298 297 294 285 280 279 276 273 271 271 271 271
296 298 299 300 302 303 304 305 307 306 305 303 302 302 302 301 300 300 300 302 299 296 297 292 286 282 275 272 272 269 268 268 267